Terminal Aerodrome Forecast
Issued by NWS

Home | Current Version | Previous Version | Text Only | Print | Product List | Glossary On
Versions: 1 2 3 4 5 6 7 8 9 10 11 12
000
FTUS45 KRIW 282326
TAFLND
TAF
KLND 282326Z 2900/2924 28009KT P6SM VCSH BKN035
     FM290200 VRB05KT P6SM SCT050
     FM291000 VRB04KT P6SM VCFG SCT005
     FM291600 VRB04KT P6SM FEW120 SCT250=

USA.gov is the U.S. government's official web portal to all federal, state and local government web resources and services.